Regional Weather Roundup
Issued by NWS Lake Charles, LA

Home | Current Version | Previous Version | Text Only | Print | Product List | Glossary On
Versions: 1 2 3 4 5 6 7 8 9 10 11 12 13 14 15 16 17 18 19 20 21 22 23 24 25 26 27
000
ASUS44 KLCH 242210
RWRLCH
RWRLCH
REGIONAL WEATHER ROUNDUP
NATIONAL WEATHER SERVICE LAKE CHARLES LA
500 PM CDT THU APR 24 2014

Note: "fair" indicates few or no clouds below 12,000 feet with no
significant weather and/or obstructions to visibility.


ACROSS SOUTHEAST TEXAS

CITY           SKY/WX    TMP DP  RH WIND       PRES   REMARKS
BEAUMONT       PTSUNNY   77  67  71 S13       29.86F
BEAUMONT CITY  MOCLDY    79  67  68 S10G16    29.86F
ORANGE         MOCLDY    76  67  74 S10G17    29.89F
JASPER         CLOUDY    77  65  66 S7        29.87S
$$

ACROSS CENTRAL LOUISIANA

CITY           SKY/WX    TMP DP  RH WIND       PRES   REMARKS
LEESVILLE      CLOUDY    78  64  61 S12G24    29.84S
FULLERTON      MOCLDY    80  63  55 S12G22    29.81F
ALEXANDRIA INT MOSUNNY   82  64  54 S17G25    29.80F
ESLER FIELD    MOSUNNY   82  65  56 S13G20    29.82F
DERIDDER       MOCLDY    79  65  61 S14G25    29.86F
OAKDALE        MOCLDY    80  66  61 S12       29.85F
OPELOUSAS        N/A     78  67  67 S8G18     29.86F
$$

ACROSS SOUTHWEST AND SOUTH CENTRAL LOUISIANA

CITY           SKY/WX    TMP DP  RH WIND       PRES   REMARKS
SULPHUR        CLOUDY    78  67  70 S12       29.89S
LAKE CHARLES   PTSUNNY   78  67  68 S10       29.88F
CHENNAULT INT  PTSUNNY   79  64  61 S13G18    29.89F
CAMERON PHI    CLOUDY    75  68  78 S10       29.89S
DEQUINCY       MOCLDY    77  66  68 S10       29.86F
JENNINGS       CLOUDY    78  66  67 SW12      29.88F
LAFAYETTE      PTSUNNY   78  65  63 S10G23    29.89R
NEW IBERIA     MOSUNNY   79  65  62 S14G21    29.90R
ABBEVILLE        N/A     84  65  53 S15       29.90S
PATTERSON      MOSUNNY   79  66  65 SE14      29.92S
SALT POINT       N/A     78  68  71 VRB6      29.89R
$$

SELECTED SITES ACROSS THE REGION

CITY           SKY/WX    TMP DP  RH WIND       PRES   REMARKS
HOUSTON BUSH   CLOUDY    82  64  54 S7        29.83S
HOUSTON HOBBY  PTSUNNY   82  66  58 S12       29.83F
GALVESTON      PTSUNNY   76  70  82 S12       29.87F
COLLEGE STAT   SUNNY     83  65  54 S8        29.81F
CONROE         CLOUDY    80  66  62 SW5       29.84S
HUNTSVILLE     MOSUNNY   81  67  62 VRB5      29.84F
LUFKIN         CLOUDY    79  65  62 W10       29.84S
SHREVEPORT     PTSUNNY   79  65  62 SW13G18   29.78F
MONROE         CLOUDY    79  65  62 S13G26    29.76F
NATCHEZ MS     CLOUDY    79  64  61 S8        29.84S
BATON ROUGE    MOSUNNY   83  63  50 S12       29.85F
N.O. INTL ARPT PTSUNNY   80  65  59 S18       29.87F
SLIDELL        MOSUNNY   79  65  62 S14       29.88F
$$

MARINE REPORTS

STATION/POSITION TIME  TEMP    WIND        PRES    VSBY  WAVE
                       AIR SEA DIR/SP/G                  HT/PER
                 (UTC) (F)     (DEG/KT/KT) (MB)    (MI)  (FT/S)
BUOY 30 S HIGH I 2200   71 70  200/  4/  4 1011.7F         3/ 5
SEA RIM ST PARK  2200   73     190/  7/ 10 1012.4F
PORT ARTHUR      2200      74  210/  8/ 11 1011.8S
SABINE PASS N    2200   73 71  200/ 12/ 15 1011.9R
TEXAS POINT      2200   72 73  190/ 11/ 13 1012.2R
CALCASIEU PASS   2200   73 74  200/ 11/ 14 1013.0R
LK CHARLES BEACH 2200   77 75              1012.4F
MARSH ISLAND     2100   72     170/ 15/ 17   N/A
FRESH WATER LOCK 2200   74 78  160/ 10/ 13 1012.4S
AMERADA PASS     2200   76 69  160/  5/ 10 1012.0R
$$



USA.gov is the U.S. government's official web portal to all federal, state and local government web resources and services.